This is the latest recevied weather packets stored in our database for station/object WB4ZUT. If no packets are shown the sender has not sent any weather packets the latest 10 day(s).
| Time | Temp. | Humidity | Pressure | Rain* | Wind** | Luminosity | Snow |
|---|---|---|---|---|---|---|---|
| 1777541795 | 6.11° C | 87% | 1016.7 hPa | 0 mm | - | 0 W/m² | - |
| 1777541492 | 6.67° C | 87% | 1016.7 hPa | 0 mm | - | 0 W/m² | - |
| 1777541188 | 6.67° C | 87% | 1016.7 hPa | 0 mm | - | 0 W/m² | - |
| 1777540884 | 7.22° C | 86% | 1016.7 hPa | 0 mm | - | 0 W/m² | - |
| 1777540583 | 7.22° C | 86% | 1016.7 hPa | 0 mm | - | 0 W/m² | - |
| 1777540279 | 6.67° C | 86% | 1016.6 hPa | 0 mm | - | 0 W/m² | - |
| 1777539975 | 7.22° C | 85% | 1016.7 hPa | 0 mm | - | 0 W/m² | - |
| 1777539671 | 7.22° C | 84% | 1016.7 hPa | 0 mm | - | 0 W/m² | - |
| 1777539367 | 7.22° C | 83% | 1016.8 hPa | 0 mm | - | 0 W/m² | - |
| 1777539064 | 7.78° C | 82% | 1016.7 hPa | 0 mm | - | 0 W/m² | - |
| 1777538760 | 7.78° C | 82% | 1016.7 hPa | 0 mm | - | 0 W/m² | - |
| 1777538455 | 7.78° C | 81% | 1016.7 hPa | 0 mm | - | 0 W/m² | - |
| 1777538151 | 7.78° C | 81% | 1016.6 hPa | 0 mm | - | 0 W/m² | - |
| 1777537847 | 8.33° C | 80% | 1016.7 hPa | 0 mm | - | 0 W/m² | - |
| 1777537543 | 8.89° C | 80% | 1016.5 hPa | 0 mm | - | 0 W/m² | - |
| 1777537239 | 8.89° C | 79% | 1016.6 hPa | 0 mm | - | 0 W/m² | - |
| 1777536935 | 8.89° C | 78% | 1016.5 hPa | 0 mm | - | 0 W/m² | - |
| 1777536633 | 8.89° C | 78% | 1016.7 hPa | 0 mm | - | 0 W/m² | - |
| 1777536330 | 8.89° C | 79% | 1016.7 hPa | 0 mm | - | 0 W/m² | - |
| 1777536027 | 8.89° C | 78% | 1016.7 hPa | 0 mm | - | 0 W/m² | - |
| 1777535727 | 9.44° C | 78% | 1016.4 hPa | 0 mm | - | 0 W/m² | - |
| 1777535424 | 9.44° C | 78% | 1016.2 hPa | 0 mm | - | 0 W/m² | - |
| 1777535122 | 9.44° C | 78% | 1016.3 hPa | 0 mm | - | 0 W/m² | - |
| 1777534818 | 9.44° C | 77% | 1016.3 hPa | 0 mm | - | 0 W/m² | - |
| 1777534515 | 9.44° C | 79% | 1016.1 hPa | 0 mm | - | 0 W/m² | - |
* Rain latest hour (hover to see other rain measurements)
** Current wind speed in m/s (hover to see current wind gust speed)